Home   Weather   Freistadt   Past weeks

Flag for Austria Past Weather in Freistadt, Upper Austria, Austria — Yesterday and Last 2 Weeks

Now
N/A

Passing clouds.


Feels Like: N/A
Forecast: 33 / 62 °F
Wind: 9 mph from Southeast

Location: Rohrbach

Current Time: Apr 24, 2017 at 9:14:47 pm

Latest Report: Apr 24, 2017 at 8:00 pm


Visibility: 11 mi

Pressure: N/A

Humidity: N/A

Dew Point: N/A

Location of FreistadtLocation

Past Weather in Freistadt — Graph

°F

Freistadt Temperature Yesterday

Maximum temperature yesterday: 44 °F (at 3:00 pm)
Minimum temperature yesterday: 34 °F (at 11:00 pm)
Average temperature yesterday: 39 °F

High & Low Weather Summary for the Past Weeks

 TemperatureHumidityPressure
High68 °F (Apr 10, 3:00 pm)95% (Apr 18, 3:00 am)30.58 "Hg (Apr 18, 3:00 am)
Low24 °F (Apr 21, 6:00 am)38% (Apr 10, 3:00 pm)29.85 "Hg (Apr 13, 6:00 am)
Average42 °F70%30.15 "Hg
* Reported Apr 9 7:00 pm — Apr 24 7:00 pm, Freistadt, Weather by CustomWeather, © 2017

Note: Actual official high and low records may vary slightly from our data, if they occured in-between our weather recording intervals... More about our weather records

Advertising

Freistadt Weather History for the Previous 24 Hours

Scroll right to see more
 ConditionsComfort  
Time TempWeatherWind HumidityBarometerVisibility
7:00 pm
Mon, Apr 24
54 °FCool.2 mph41%29.90 "HgN/A
6:00 pm55 °FCool.2 mph39%29.91 "HgN/A
5:00 pm54 °FCool.2 mph43%29.93 "HgN/A
4:00 pm54 °FCool.3 mph40%29.96 "HgN/A
3:00 pm53 °FCool.2 mph41%29.99 "HgN/A
1:00 pm49 °FCool.1 mph42%30.06 "HgN/A
12:00 pm48 °FCool.2 mph48%30.09 "HgN/A
11:00 am46 °FCool.1 mph44%30.11 "HgN/A
10:00 am44 °FQuite cool.1 mph53%30.14 "HgN/A
9:00 am37 °FChilly.1 mph69%30.18 "HgN/A
8:00 am31 °FChilly.1 mph81%30.22 "HgN/A
7:00 am28 °FChilly.No wind86%30.24 "HgN/A
6:00 am27 °FPassing clouds.1 mph86%30.25 "Hg1 mi
5:00 am27 °FChilly.No wind86%30.26 "HgN/A
4:00 amN/APassing clouds.10 mphN/AN/A11 mi
3:00 am28 °FChilly.1 mph84%30.28 "HgN/A
2:00 amN/APassing clouds.9 mphN/AN/A2 mi
1:00 am31 °FChilly.1 mph77%30.29 "HgN/A
12:00 am33 °FChilly.1 mph73%30.29 "HgN/A
11:00 pm
Sun, Apr 23
34 °FChilly.2 mph69%30.28 "HgN/A
10:00 pm37 °FChilly.2 mph63%30.27 "HgN/A
9:00 pm39 °FChilly.2 mph58%30.24 "HgN/A
Weather by CustomWeather, © 2017

See weather overviewHow to use our weather pages